This is the latest recevied weather packets stored in our database for station/object R1CBW-13. If no packets are shown the sender has not sent any weather packets the latest 1 day(s).
| Time | Temp. | Humidity | Pressure | Rain* | Wind** | Luminosity | Snow |
|---|---|---|---|---|---|---|---|
| 1778064693 | 10° C | 34% | 1012.1 hPa | 0 mm | - | - | - |
| 1778064633 | 10° C | 34% | 1012.1 hPa | 0 mm | - | - | - |
| 1778064573 | 8.89° C | 34% | 1012 hPa | 0 mm | - | - | - |
| 1778064453 | 8.89° C | 34% | 1012.2 hPa | 0 mm | - | - | - |
| 1778064393 | 8.33° C | 35% | 1012.2 hPa | 0 mm | - | - | - |
| 1778064273 | 8.33° C | 35% | 1012.4 hPa | 0 mm | - | - | - |
| 1778063373 | 8.89° C | 35% | 1012 hPa | 0 mm | - | - | - |
| 1778063072 | 9.44° C | 34% | 1011.7 hPa | 0 mm | - | - | - |
| 1778063012 | 9.44° C | 35% | 1011.7 hPa | 0 mm | - | - | - |
| 1778062952 | 8.89° C | 35% | 1011.8 hPa | 0 mm | - | - | - |
| 1778062892 | 9.44° C | 35% | 1011.7 hPa | 0 mm | - | - | - |
| 1778062832 | 10° C | 34% | 1011.7 hPa | 0 mm | - | - | - |
| 1778062772 | 8.89° C | 35% | 1011.8 hPa | 0 mm | - | - | - |
| 1778062712 | 8.89° C | 34% | 1011.9 hPa | 0 mm | - | - | - |
| 1778062652 | 11.11° C | 33% | 1011.8 hPa | 0 mm | - | - | - |
| 1778062592 | 11.11° C | 33% | 1011.6 hPa | 0 mm | - | - | - |
| 1778062532 | 10.56° C | 33% | 1011.5 hPa | 0 mm | - | - | - |
| 1778062472 | 11.11° C | 33% | 1011.6 hPa | 0 mm | - | - | - |
| 1778062412 | 11.11° C | 33% | 1011.5 hPa | 0 mm | - | - | - |
| 1778062352 | 10.56° C | 34% | 1011.5 hPa | 0 mm | - | - | - |
| 1778062292 | 10.56° C | 34% | 1011.5 hPa | 0 mm | - | - | - |
| 1778062232 | 10.56° C | 34% | 1011.5 hPa | 0 mm | - | - | - |
| 1778062172 | 11.11° C | 34% | 1011.4 hPa | 0 mm | - | - | - |
| 1778062112 | 10.56° C | 35% | 1011.5 hPa | 0 mm | - | - | - |
| 1778062052 | 10.56° C | 36% | 1011.4 hPa | 0 mm | - | - | - |
* Rain latest hour (hover to see other rain measurements)
** Current wind speed in m/s (hover to see current wind gust speed)